Flag for Moldova Weather past 2 weeks in Tiraspol, Moldova

Now
70 °F

Sprinkles. Partly sunny.


Feels Like: 70 °F
Forecast: 64 / 81 °F
Wind: 16 mph from North

Location: Chisinau International Airport

Current Time: Jul 2, 2015 at 4:01:19 PM

Latest Report: Jul 2, 2015 at 3:30 PM


Visibility: N/A

Pressure: 30.12 "Hg

Humidity: 57%

Dew point: 54 °F

Location of TiraspolLocation

Historic Weather in Tiraspol — Graph

°F

Tiraspol temperature yesterday

Maximum temperature yesterday: 82 °F (at 12:00 PM)
Minimum temperature yesterday: 61 °F (at 4:30 AM)
Average temperature yesterday: 73 °F

Past Weeks' High & Low Weather Summary

 TemperatureHumidityPressure
High84 °F (Jun 24, 3:00 PM)88% (Jun 18, 3:30 AM)30.12 "Hg (Jun 18, 3:30 AM)
Low48 °F (Jun 19, 6:00 AM)23% (Jun 29, 6:00 PM)29.71 "Hg (Jun 19, 5:00 PM)
Average69 °F51%29.90 "Hg
* Reported Jun 17 3:00 PM — Jul 2 3:00 PM, Tiraspol, Weather by CustomWeather, © 2015

Note: Actual official high and low records may vary slightly from our data, if they occured in-between our weather recording intervals... More about our weather records

Advertising

Tiraspol weather history for previous 24 hours

 ConditionsComfort  
Time TempWeatherWind HumidityBarometerVisibility
3:00 PM
Thu, Jul 2
77 °FScattered clouds.16 mph39%30.09 "HgN/A
2:30 PM79 °FSprinkles. Partly sunny.16 mph34%30.09 "HgN/A
2:00 PM73 °FThundershowers. Broken clouds.15 mph47%30.09 "HgN/A
1:30 PM75 °FSprinkles. Broken clouds.9 mph41%30.09 "HgN/A
1:00 PM77 °FPartly sunny.12 mph36%30.09 "HgN/A
12:30 PM75 °FPartly sunny.13 mph44%30.12 "HgN/A
12:00 PM75 °FPartly sunny.13 mph44%30.12 "HgN/A
11:30 AM75 °FPartly sunny.9 mph44%30.12 "HgN/A
11:00 AM73 °FPartly sunny.12 mph50%30.12 "HgN/A
10:30 AM73 °FScattered clouds.9 mph50%30.12 "HgN/A
10:00 AM72 °FScattered clouds.9 mph57%30.12 "HgN/A
9:30 AM72 °FScattered clouds.10 mph57%30.12 "HgN/A
9:00 AM70 °FScattered clouds.10 mph64%30.12 "HgN/A
8:30 AM68 °FPassing clouds.13 mph69%30.12 "HgN/A
8:00 AM66 °FSunny.14 mph73%30.12 "Hg10 mi
7:30 AM64 °FPassing clouds.10 mph78%30.12 "HgN/A
7:00 AM64 °FPassing clouds.8 mph78%30.12 "HgN/A
6:30 AM64 °FSunny.8 mph73%30.09 "Hg10 mi
6:00 AM63 °FClear.9 mph77%30.09 "Hg10 mi
5:30 AM63 °FClear.9 mph83%30.09 "Hg10 mi
5:00 AM63 °FClear.5 mph83%30.09 "Hg10 mi
4:30 AM61 °FPassing clouds.5 mph83%30.09 "HgN/A
4:00 AM63 °FClear.2 mph77%30.09 "Hg10 mi
3:30 AM63 °FClear.6 mph77%30.09 "Hg10 mi
3:00 AM64 °FPassing clouds.3 mph73%30.09 "HgN/A
2:30 AM64 °FPassing clouds.2 mph78%30.12 "HgN/A
2:00 AM66 °FPassing clouds.No wind68%30.12 "HgN/A
1:30 AM68 °FPassing clouds.6 mph64%30.12 "HgN/A
1:00 AM68 °FPassing clouds.9 mph64%30.12 "HgN/A
12:00 AM70 °FPassing clouds.8 mph60%30.12 "HgN/A
11:30 PM
Wed, Jul 1
70 °FPassing clouds.9 mph64%30.09 "HgN/A
11:00 PM72 °FPassing clouds.6 mph57%30.09 "HgN/A
10:30 PM73 °FSprinkles. Passing clouds.15 mph47%30.09 "HgN/A
10:00 PM73 °FPartly sunny.14 mph44%30.09 "HgN/A
9:30 PM72 °FPartly sunny.7 mph61%30.09 "HgN/A
9:00 PM72 °FScattered clouds.3 mph57%30.09 "HgN/A
8:30 PM72 °FScattered clouds.6 mph61%30.09 "HgN/A
8:00 PM73 °FScattered clouds.6 mph57%30.09 "HgN/A
7:30 PM79 °FSprinkles. Partly sunny.13 mph39%30.09 "HgN/A
7:00 PM81 °FScattered clouds.5 mph30%30.07 "HgN/A
6:30 PM81 °FScattered clouds.5 mph32%30.07 "HgN/A
6:00 PM81 °FScattered clouds.3 mph32%30.07 "HgN/A
5:30 PM82 °FScattered clouds.6 mph28%30.09 "HgN/A
5:00 PM82 °FSunny.3 mph28%30.09 "Hg10 mi
4:30 PM82 °FSunny.2 mph28%30.09 "Hg10 mi
4:00 PM81 °FPassing clouds.6 mph26%30.09 "HgN/A
Weather by CustomWeather, © 2015

See weather overviewHow to use our weather pages